FW1480 Weather Reports


Display with metric or nautical units.
time (UTC)temp
F
wind
direction
speed
MPH
gust
MPH
rain 1hr
in
rain 24hr
in
rain mn
in
humidity
%
barometer
mb
20260506051043 63 217 0.0 4.0 0.00 0.00 0.00 73 1012.0
20260506045019 63 212 0.0 0.0 0.00 0.00 0.00 72 1012.2
20260506044514 63 165 0.0 0.0 0.00 0.00 0.00 72 1012.2
20260506044008 63 221 0.0 0.0 0.00 0.00 0.00 72 1012.2
20260506043501 63 204 0.0 2.0 0.00 0.00 0.00 71 1012.2
20260506042954 63 217 0.0 2.0 0.00 0.00 0.00 71 1012.2
20260506042447 63 221 0.0 2.0 0.00 0.00 0.00 71 1012.0
20260506041942 64 214 0.0 0.0 0.00 0.00 0.00 70 1012.1
20260506041440 64 205 0.0 3.0 0.00 0.00 0.00 70 1012.2
20260506040938 64 216 0.0 3.0 0.00 0.00 0.00 70 1012.1
20260506040439 64 171 0.0 0.0 0.00 0.00 0.00 69 1012.1
20260506035941 65 203 0.0 3.0 0.00 0.00 0.00 69 1012.1
20260506035440 65 207 0.0 6.0 0.00 0.00 0.00 68 1012.1
20260506034440 65 211 0.0 2.0 0.00 0.00 0.00 68 1012.1
20260506033438 65 213 0.0 5.0 0.00 0.00 0.00 68 1012.0
20260506032439 65 194 0.0 4.0 0.00 0.00 0.00 69 1012.0
20260506031933 65 197 0.0 2.0 0.00 0.00 0.00 68 1011.9
20260506030932 65 204 0.0 3.0 0.00 0.00 0.00 68 1012.0
20260506025928 65 198 0.0 7.0 0.00 0.00 0.00 68 1011.9
20260506025427 65 210 1.0 7.0 0.00 0.00 0.00 68 1012.0
20260506024925 65 198 0.0 5.0 0.00 0.00 0.00 67 1011.9
20260506024424 65 237 0.0 3.0 0.00 0.00 0.00 68 1011.9
20260506023922 65 203 0.0 2.0 0.00 0.00 0.00 68 1011.9
20260506023423 65 226 0.0 2.0 0.00 0.00 0.00 68 1011.9
20260506022422 65 193 0.0 2.0 0.00 0.00 0.00 67 1012.0
20260506021922 65 211 0.0 2.0 0.00 0.00 0.00 67 1012.0
20260506021423 65 217 0.0 2.0 0.00 0.00 0.00 66 1011.9
20260506020921 65 116 0.0 3.0 0.00 0.00 0.00 66 1011.9
20260506020421 66 226 0.0 4.0 0.00 0.00 0.00 66 1012.0
20260506015921 66 218 0.0 4.0 0.00 0.00 0.00 66 1011.9
20260506015421 66 218 1.0 4.0 0.00 0.00 0.00 65 1011.9
20260506013902 66 205 0.0 6.0 0.00 0.00 0.00 65 1011.6
20260506013357 67 176 0.0 6.0 0.00 0.00 0.00 64 1011.5
20260506012851 67 220 0.0 3.0 0.00 0.00 0.00 64 1011.4
20260506011839 67 243 0.0 2.0 0.00 0.00 0.00 63 1011.4
20260506011333 67 243 0.0 4.0 0.00 0.00 0.00 62 1011.4
20260506010827 67 210 0.0 4.0 0.00 0.00 0.00 61 1011.2
20260506010321 67 219 0.0 3.0 0.00 0.00 0.00 61 1011.3
20260506005815 67 209 0.0 2.0 0.00 0.00 0.00 61 1011.1
20260506005306 67 219 0.0 3.0 0.00 0.00 0.00 61 1011.2
20260506004759 67 196 0.0 3.0 0.00 0.00 0.00 61 1011.2
20260506004256 67 183 0.0 1.0 0.00 0.00 0.00 62 1011.2
20260506003756 67 205 0.0 2.0 0.00 0.00 0.00 62 1011.0
20260506003255 67 217 0.0 3.0 0.00 0.00 0.00 63 1011.1
20260506002252 67 208 0.0 4.0 0.00 0.00 0.00 63 1011.0
20260506001753 67 218 0.0 2.0 0.00 0.00 0.00 62 1010.8
20260506001253 68 179 0.0 1.0 0.00 0.00 0.00 63 1010.8
20260506000252 68 165 0.0 3.0 0.00 0.00 0.00 62 1010.7
20260505235753 68 202 0.0 3.0 0.00 0.00 0.00 61 1010.6
20260505235250 68 209 0.0 1.0 0.00 0.00 0.00 61 1010.7
20260505234748 69 219 0.0 1.0 0.00 0.00 0.00 61 1010.5
20260505234246 69 210 0.0 2.0 0.00 0.00 0.00 60 1010.4
20260505233746 69 214 0.0 2.0 0.00 0.00 0.00 60 1010.3
20260505233246 69 210 0.0 2.0 0.00 0.00 0.00 60 1010.2
20260505232747 69 226 0.0 2.0 0.00 0.00 0.00 59 1010.2
20260505231747 70 180 0.0 0.0 0.00 0.00 0.00 58 1010.1
20260505230744 70 223 0.0 1.0 0.00 0.00 0.00 58 1009.8
20260505230244 70 105 0.0 2.0 0.00 0.00 0.00 57 1010.0
20260505225745 71 200 0.0 2.0 0.00 0.00 0.00 58 1009.8
20260505225243 71 174 0.0 0.0 0.00 0.00 0.00 57 1009.8
20260505224741 71 208 0.0 1.0 0.00 0.00 0.00 57 1009.7
20260505224240 72 167 0.0 2.0 0.00 0.00 0.00 56 1009.6
20260505223740 72 157 0.0 2.0 0.00 0.00 0.00 56 1009.5
20260505223240 72 229 0.0 3.0 0.00 0.00 0.00 54 1009.5
20260505222740 72 234 0.0 4.0 0.00 0.00 0.00 56 1009.5
20260505222240 73 212 0.0 4.0 0.00 0.00 0.00 55 1009.5
20260505221740 73 183 1.0 5.0 0.00 0.00 0.00 55 1009.5
20260505221241 73 232 1.0 6.0 0.00 0.00 0.00 54 1009.6
20260505215738 74 179 1.0 4.0 0.00 0.00 0.00 54 1009.8
20260505215239 74 259 1.0 4.0 0.00 0.00 0.00 53 1009.9
20260505214739 74 192 1.0 7.0 0.00 0.00 0.00 53 1009.8
20260505213737 74 200 1.0 10.0 0.00 0.00 0.00 54 1009.6
20260505213238 75 156 1.0 6.0 0.00 0.00 0.00 53 1009.6
20260505212738 75 180 1.0 5.0 0.00 0.00 0.00 52 1009.4
20260505211737 75 231 1.0 8.0 0.00 0.00 0.00 51 1009.4
20260505211237 75 217 1.0 6.0 0.00 0.00 0.00 50 1009.3
20260505210737 75 134 1.0 6.0 0.00 0.00 0.00 49 1009.3
20260505210238 76 141 1.0 7.0 0.00 0.00 0.00 50 1009.3
20260505205737 76 233 2.0 10.0 0.00 0.00 0.00 50 1009.3
20260505205239 76 285 1.0 10.0 0.00 0.00 0.00 52 1009.2
20260505203239 76 200 2.0 11.0 0.00 0.00 0.00 50 1009.7
20260505202736 76 119 3.0 11.0 0.00 0.00 0.00 50 1009.7
20260505201736 77 247 2.0 9.0 0.00 0.00 0.00 49 1009.6
20260505200732 77 240 1.0 8.0 0.00 0.00 0.00 49 1009.7
20260505200233 77 181 1.0 7.0 0.00 0.00 0.00 49 1009.6
20260505195729 77 184 2.0 9.0 0.00 0.00 0.00 48 1009.7
20260505195230 77 219 2.0 9.0 0.00 0.00 0.00 50 1009.8
20260505194729 77 136 2.0 9.0 0.00 0.00 0.00 49 1009.8
20260505194227 77 195 2.0 10.0 0.00 0.00 0.00 49 1009.9
20260505193729 77 198 2.0 11.0 0.00 0.00 0.00 49 1009.8
20260505193228 77 148 2.0 11.0 0.00 0.00 0.00 48 1009.8
20260505192227 78 227 2.0 7.0 0.00 0.00 0.00 47 1009.7
20260505191730 78 191 2.0 9.0 0.00 0.00 0.00 47 1009.8
20260505191229 78 218 2.0 9.0 0.00 0.00 0.00 47 1009.7
20260505190723 78 184 2.0 12.0 0.00 0.00 0.00 47 1009.9
20260505190217 78 198 2.0 12.0 0.00 0.00 0.00 47 1009.8
20260505185711 78 166 2.0 9.0 0.00 0.00 0.00 48 1010.0
20260505184659 78 252 2.0 10.0 0.00 0.00 0.00 49 1010.2
20260505184154 77 175 2.0 10.0 0.00 0.00 0.00 47 1010.2
20260505183648 78 195 1.0 6.0 0.00 0.00 0.00 49 1010.4
20260505183142 78 212 1.0 7.0 0.00 0.00 0.00 50 1010.3
20260505182635 78 198 1.0 7.0 0.00 0.00 0.00 48 1010.5
20260505182129 78 98 1.0 9.0 0.00 0.00 0.00 49 1010.5
20260505181624 78 219 2.0 9.0 0.00 0.00 0.00 47 1010.6
20260505181117 78 191 2.0 10.0 0.00 0.00 0.00 49 1010.4
20260505180611 78 208 2.0 10.0 0.00 0.00 0.00 48 1010.6
20260505180106 79 229 2.0 8.0 0.00 0.00 0.00 49 1010.5
20260505175600 79 138 1.0 8.0 0.00 0.00 0.00 47 1010.3
20260505175054 79 128 2.0 9.0 0.00 0.00 0.00 44 1010.5
20260505174547 79 239 2.0 9.0 0.00 0.00 0.00 44 1010.5
20260505174042 80 207 1.0 9.0 0.00 0.00 0.00 45 1010.4
20260505173535 80 117 1.0 9.0 0.00 0.00 0.00 43 1010.5
20260505173029 80 181 1.0 8.0 0.00 0.00 0.00 45 1010.6
20260505172524 80 176 2.0 9.0 0.00 0.00 0.00 44 1010.6
20260505172017 80 91 1.0 9.0 0.00 0.00 0.00 44 1010.6
20260505171511 80 226 1.0 7.0 0.00 0.00 0.00 45 1010.7
20260505171005 80 193 1.0 6.0 0.00 0.00 0.00 45 1010.7
20260505165954 79 153 0.0 4.0 0.00 0.00 0.00 45 1010.8
20260505164941 78 198 1.0 9.0 0.00 0.00 0.00 46 1011.0
20260505164437 78 204 2.0 9.0 0.00 0.00 0.00 47 1011.1
20260505163937 78 238 1.0 9.0 0.00 0.00 0.00 47 1011.2
20260505163437 78 148 1.0 5.0 0.00 0.00 0.00 47 1011.4
20260505162937 78 221 0.0 4.0 0.00 0.00 0.00 47 1011.5
20260505161937 78 145 1.0 7.0 0.00 0.00 0.00 48 1011.6
20260505160937 78 171 1.0 10.0 0.00 0.00 0.00 47 1011.9
20260505160438 77 118 1.0 10.0 0.00 0.00 0.00 50 1011.9
20260505152433 74 140 1.0 6.0 0.00 0.00 0.00 53 1012.0
20260505151933 74 224 1.0 6.0 0.00 0.00 0.00 53 1011.7
20260505151433 74 139 0.0 5.0 0.00 0.00 0.00 54 1012.0
20260505150933 73 210 0.0 7.0 0.00 0.00 0.00 56 1012.2
20260505150434 73 158 0.0 7.0 0.00 0.00 0.00 56 1012.4
20260505124820 0 0.0 0.0 0.00 0.00 0.00 1012.0
20260505123730 0 0.0 0.0 0.00 0.00 0.00 1011.7
20260505123216 0 0.0 0.0 0.00 0.00 0.00 1011.9
20260505122715 0 0.0 0.0 0.00 0.00 0.00 1012.0
20260505122119 0 0.0 0.0 0.00 0.00 0.00 1012.3
20260505121525 0 0.0 0.0 0.00 0.00 0.00 1012.8
20260505121009 0 0.0 0.0 0.00 0.00 0.00 1012.7
20260505120418 0 0.0 0.0 0.00 0.00 0.00 1012.7
20260505115918 0 0.0 0.0 0.00 0.00 0.00 1012.7
20260505115416 0 0.0 0.0 0.00 0.00 0.00 1012.8
20260505114317 0 0.0 0.0 0.00 0.00 0.00 1012.7
20260505113817 0 0.0 0.0 0.00 0.00 0.00 1012.7
20260505113315 0 0.0 0.0 0.00 0.00 0.00 1012.8
20260505112726 0 0.0 0.0 0.00 0.00 0.00 1012.7
20260505112227 0 0.0 0.0 0.00 0.00 0.00 1012.7
20260505111720 0 0.0 0.0 0.00 0.00 0.00 1012.5
20260505111217 0 0.0 0.0 0.00 0.00 0.00 1012.7
20260505110715 0 0.0 0.0 0.00 0.00 0.00 1012.6
20260505110130 0 0.0 0.0 0.00 0.00 0.00 1012.6
20260505101819 0 0.0 0.0 0.00 0.00 0.00 1012.1
20260505100723 0 0.0 0.0 0.00 0.00 0.00 1011.7
20260505100219 0 0.0 0.0 0.00 0.00 0.00 1011.6
20260505095719 0 0.0 0.0 0.00 0.00 0.00 1011.7
20260505095217 0 0.0 0.0 0.00 0.00 0.00 1011.6
20260505094128 0 0.0 0.0 0.00 0.00 0.00 1011.5
20260505093615 0 0.0 0.0 0.00 0.00 0.00 1011.5
20260505093117 0 0.0 0.0 0.00 0.00 0.00 1011.4
20260505090920 0 0.0 0.0 0.00 0.00 0.00 1011.4
20260505090417 0 0.0 0.0 0.00 0.00 0.00 1011.3
20260505085827 0 0.0 0.0 0.00 0.00 0.00 1011.5
20260505085327 0 0.0 0.0 0.00 0.00 0.00 1011.4
20260505084313 0 0.0 0.0 0.00 0.00 0.00 1011.4
20260505083809 0 0.0 0.0 0.00 0.00 0.00 1011.3
20260505082624 0 0.0 0.0 0.00 0.00 0.00 1011.4
20260505082116 0 0.0 0.0 0.00 0.00 0.00 1011.5
20260505081630 0 0.0 0.0 0.00 0.00 0.00 1011.5
20260505080525 0 0.0 0.0 0.00 0.00 0.00 1011.5
20260505080023 0 0.0 0.0 0.00 0.00 0.00 1011.6
20260505075515 0 0.0 0.0 0.00 0.00 0.00 1011.5
20260505075018 0 0.0 0.0 0.00 0.00 0.00 1011.5
20260505074423 0 196 0.0 0.0 0.00 0.00 0.00 1011.4
20260505073923 53 196 0.0 0.0 0.00 0.00 0.00 76 1011.4
20260505072910 54 197 0.0 0.0 0.00 0.00 0.00 75 1011.5
20260505072411 54 197 0.0 0.0 0.00 0.00 0.00 74 1011.6
20260505071408 55 198 0.0 0.0 0.00 0.00 0.00 73 1011.4
20260505070906 55 197 0.0 0.0 0.00 0.00 0.00 72 1011.3
20260505065903 56 218 0.0 0.0 0.00 0.00 0.00 71 1011.2
20260505065356 56 220 0.0 0.0 0.00 0.00 0.00 71 1011.3
20260505064850 56 226 0.0 0.0 0.00 0.00 0.00 71 1011.4
20260505064344 56 202 0.0 0.0 0.00 0.00 0.00 70 1011.3
20260505063838 56 204 0.0 0.0 0.00 0.00 0.00 70 1011.4
20260505063332 56 226 0.0 0.0 0.00 0.00 0.00 69 1011.5
20260505062320 56 217 0.0 0.0 0.00 0.00 0.00 68 1011.4
20260505061813 57 199 0.0 1.0 0.00 0.00 0.00 68 1011.6
20260505060812 57 204 0.0 0.0 0.00 0.00 0.00 67 1011.6
20260505055309 57 203 0.0 1.0 0.00 0.00 0.00 66 1011.6
20260505054809 57 217 0.0 1.0 0.00 0.00 0.00 65 1011.9
20260505054312 57 218 0.0 0.0 0.00 0.00 0.00 65 1011.7
20260505053811 57 198 0.0 0.0 0.00 0.00 0.00 65 1011.7
20260505053310 58 167 0.0 0.0 0.00 0.00 0.00 65 1011.9